EN

Hourly Weather Bolshie Lopatki

Today, 22 October, Thursday

Time Temperature Precipitation Wind Pressure Humidity
00:00 +5°C° 0 mm 1 mps 743 mmHg 98%
01:00 +5°C° 0 mm 1 mps 743 mmHg 98%
02:00 +5°C° 0 mm 1 mps 743 mmHg 98%
03:00 +5°C° 0 mm 1 mps 743 mmHg 98%
04:00 +5°C° 0 mm 1 mps 743 mmHg 98%
05:00 +5°C° 0 mm 1 mps 743 mmHg 98%
06:00 +5°C° 0 mm 2 mps 742 mmHg 96%
07:00 +5°C° 0 mm 2 mps 742 mmHg 95%
08:00 +4°C° 0 mm 3 mps 742 mmHg 94%
09:00 +5°C° 0.1 mm 3 mps 742 mmHg 91%
10:00 +7°C° 0.1 mm 3 mps 742 mmHg 89%
11:00 +6°C° 0.1 mm 4 mps 741 mmHg 87%
12:00 +6°C° 0.3 mm 4 mps 741 mmHg 89%
13:00 +6°C° 0.3 mm 4 mps 740 mmHg 91%
14:00 +6°C° 0.3 mm 4 mps 740 mmHg 93%
15:00 +6°C° 0.1 mm 4 mps 739 mmHg 92%
16:00 +6°C° 0.1 mm 5 mps 738 mmHg 92%
17:00 +6°C° 0.1 mm 5 mps 738 mmHg 92%
18:00 +7°C° 0 mm 5 mps 737 mmHg 91%
19:00 +7°C° 0 mm 5 mps 737 mmHg 91%
20:00 +8°C° 0 mm 5 mps 737 mmHg 90%
21:00 +8°C° 0 mm 5 mps 737 mmHg 89%
22:00 +9°C° 0 mm 5 mps 736 mmHg 89%
23:00 +9°C° 0 mm 5 mps 736 mmHg 88%

Tomorrow, 23 October, Friday

Time Temperature Precipitation Wind Pressure Humidity
00:00 +10°C° 0 mm 5 mps 736 mmHg 87%
01:00 +10°C° 0 mm 6 mps 737 mmHg 86%
02:00 +10°C° 0 mm 6 mps 737 mmHg 86%
03:00 +10°C° 0 mm 5 mps 737 mmHg 86%
04:00 +10°C° 0 mm 5 mps 737 mmHg 87%
05:00 +9°C° 0 mm 5 mps 737 mmHg 88%
06:00 +9°C° 0 mm 5 mps 738 mmHg 88%
07:00 +9°C° 0 mm 5 mps 738 mmHg 88%
08:00 +9°C° 0 mm 5 mps 738 mmHg 88%
09:00 +10°C° 0 mm 5 mps 738 mmHg 86%
10:00 +10°C° 0 mm 5 mps 738 mmHg 85%
11:00 +10°C° 0 mm 5 mps 738 mmHg 83%
12:00 +10°C° 0 mm 5 mps 737 mmHg 84%
13:00 +12°C° 0 mm 4 mps 737 mmHg 84%
14:00 +12°C° 0 mm 4 mps 736 mmHg 84%
15:00 +11°C° 1.3 mm 4 mps 736 mmHg 88%
16:00 +11°C° 1.3 mm 3 mps 735 mmHg 92%
17:00 +11°C° 1.3 mm 3 mps 735 mmHg 96%
18:00 +11°C° 1 mm 3 mps 735 mmHg 94%
19:00 +11°C° 1 mm 4 mps 735 mmHg 91%
20:00 +10°C° 1 mm 5 mps 735 mmHg 89%
21:00 +11°C° 0 mm 4 mps 735 mmHg 89%
22:00 +10°C° 0 mm 4 mps 735 mmHg 90%
23:00 +10°C° 0 mm 4 mps 735 mmHg 90%

Day after tomorrow, 24 October, Saturday

Time Temperature Precipitation Wind Pressure Humidity
00:00 +8°C° 0 mm 4 mps 736 mmHg 91%
01:00 +8°C° 0 mm 4 mps 736 mmHg 91%
02:00 +7°C° 0 mm 4 mps 737 mmHg 92%
03:00 +7°C° 0 mm 4 mps 737 mmHg 90%
04:00 +8°C° 0 mm 3 mps 737 mmHg 89%
05:00 +8°C° 0 mm 3 mps 738 mmHg 87%
06:00 +8°C° 0 mm 3 mps 738 mmHg 87%
07:00 +8°C° 0 mm 3 mps 738 mmHg 86%
08:00 +8°C° 0 mm 2 mps 738 mmHg 85%
09:00 +9°C° 0 mm 2 mps 739 mmHg 83%
10:00 +9°C° 0 mm 3 mps 739 mmHg 81%
11:00 +10°C° 0 mm 3 mps 739 mmHg 78%
12:00 +10°C° 0 mm 3 mps 739 mmHg 79%
13:00 +9°C° 0 mm 3 mps 739 mmHg 80%
14:00 +9°C° 0 mm 3 mps 739 mmHg 81%
15:00 +8°C° 0 mm 3 mps 739 mmHg 85%
16:00 +8°C° 0 mm 2 mps 739 mmHg 88%
17:00 +7°C° 0 mm 2 mps 738 mmHg 92%
18:00 +8°C° 0 mm 1 mps 739 mmHg 92%
19:00 +8°C° 0 mm 1 mps 739 mmHg 93%
20:00 +8°C° 0 mm 1 mps 739 mmHg 94%
21:00 +8°C° 0.4 mm 1 mps 739 mmHg 95%
22:00 +8°C° 0.4 mm 1 mps 738 mmHg 95%
23:00 +9°C° 0.4 mm 1 mps 738 mmHg 96%

, 25 October, Sunday

Time Temperature Precipitation Wind Pressure Humidity
00:00 +8°C° 0.9 mm 1 mps 738 mmHg 97%
01:00 +8°C° 0.9 mm 1 mps 738 mmHg 97%
02:00 +8°C° 0.9 mm 1 mps 738 mmHg 97%
03:00 +8°C° 0.4 mm 1 mps 738 mmHg 97%
04:00 +8°C° 0.4 mm 1 mps 738 mmHg 97%
05:00 +8°C° 0.4 mm 1 mps 738 mmHg 96%
06:00 +7°C° 0 mm 2 mps 738 mmHg 95%
07:00 +7°C° 0 mm 2 mps 738 mmHg 94%
08:00 +8°C° 0 mm 3 mps 738 mmHg 92%
09:00 +8°C° 0.1 mm 3 mps 739 mmHg 91%
10:00 +8°C° 0.1 mm 3 mps 739 mmHg 89%
11:00 +9°C° 0.1 mm 3 mps 739 mmHg 87%
12:00 +8°C° 0.1 mm 4 mps 740 mmHg 83%
13:00 +8°C° 0.1 mm 4 mps 740 mmHg 79%
14:00 +8°C° 0.1 mm 4 mps 741 mmHg 76%
15:00 +8°C° 0 mm 4 mps 741 mmHg 78%
16:00 +8°C° 0 mm 3 mps 742 mmHg 80%
17:00 +7°C° 0 mm 3 mps 742 mmHg 83%
18:00 +7°C° 0 mm 3 mps 743 mmHg 84%
19:00 +7°C° 0 mm 3 mps 743 mmHg 85%
20:00 +7°C° 0 mm 3 mps 744 mmHg 86%
21:00 +7°C° 0 mm 2 mps 744 mmHg 86%
22:00 +7°C° 0 mm 2 mps 745 mmHg 86%
23:00 +6°C° 0 mm 2 mps 745 mmHg 87%

25 October, Sunday

Time Temperature Precipitation Wind Pressure Humidity
00:00 +8°C° 0.9 mm 1 mps 738 mmHg 97%
01:00 +8°C° 0.9 mm 1 mps 738 mmHg 97%
02:00 +8°C° 0.9 mm 1 mps 738 mmHg 97%
03:00 +8°C° 0.4 mm 1 mps 738 mmHg 97%
04:00 +8°C° 0.4 mm 1 mps 738 mmHg 97%
05:00 +8°C° 0.4 mm 1 mps 738 mmHg 96%
06:00 +7°C° 0 mm 2 mps 738 mmHg 95%
07:00 +7°C° 0 mm 2 mps 738 mmHg 94%
08:00 +8°C° 0 mm 3 mps 738 mmHg 92%
09:00 +8°C° 0.1 mm 3 mps 739 mmHg 91%
10:00 +8°C° 0.1 mm 3 mps 739 mmHg 89%
11:00 +9°C° 0.1 mm 3 mps 739 mmHg 87%
12:00 +8°C° 0.1 mm 4 mps 740 mmHg 83%
13:00 +8°C° 0.1 mm 4 mps 740 mmHg 79%
14:00 +8°C° 0.1 mm 4 mps 741 mmHg 76%
15:00 +8°C° 0 mm 4 mps 741 mmHg 78%
16:00 +8°C° 0 mm 3 mps 742 mmHg 80%
17:00 +7°C° 0 mm 3 mps 742 mmHg 83%
18:00 +7°C° 0 mm 3 mps 743 mmHg 84%
19:00 +7°C° 0 mm 3 mps 743 mmHg 85%
20:00 +7°C° 0 mm 3 mps 744 mmHg 86%
21:00 +7°C° 0 mm 2 mps 744 mmHg 86%
22:00 +7°C° 0 mm 2 mps 745 mmHg 86%
23:00 +6°C° 0 mm 2 mps 745 mmHg 87%

26 October, Monday

Time Temperature Precipitation Wind Pressure Humidity
00:00 +6°C° 0 mm 2 mps 746 mmHg 88%
01:00 +5°C° 0 mm 2 mps 746 mmHg 90%
02:00 +5°C° 0 mm 2 mps 746 mmHg 92%
03:00 +4°C° 0 mm 2 mps 747 mmHg 93%
04:00 +5°C° 0 mm 1 mps 747 mmHg 94%
05:00 +4°C° 0 mm 1 mps 747 mmHg 95%
06:00 +5°C° 0 mm 1 mps 748 mmHg 93%
07:00 +5°C° 0 mm 1 mps 748 mmHg 92%
08:00 +5°C° 0 mm 1 mps 748 mmHg 91%
09:00 +6°C° 0 mm 0 mps 749 mmHg 86%
10:00 +7°C° 0 mm 0 mps 749 mmHg 80%
11:00 +8°C° 0 mm 0 mps 749 mmHg 75%
12:00 +9°C° 0 mm 0 mps 749 mmHg 73%
13:00 +9°C° 0 mm 0 mps 749 mmHg 72%
14:00 +10°C° 0 mm 1 mps 749 mmHg 71%
15:00 +9°C° 0 mm 1 mps 749 mmHg 76%
16:00 +8°C° 0 mm 1 mps 749 mmHg 82%
17:00 +7°C° 0 mm 1 mps 749 mmHg 88%
18:00 +6°C° 0 mm 1 mps 749 mmHg 89%
19:00 +6°C° 0 mm 1 mps 749 mmHg 91%
20:00 +6°C° 0 mm 1 mps 749 mmHg 93%
21:00 +5°C° 0 mm 1 mps 750 mmHg 93%
22:00 +5°C° 0 mm 1 mps 750 mmHg 94%
23:00 +5°C° 0 mm 1 mps 750 mmHg 94%

27 October, Tuesday

Time Temperature Precipitation Wind Pressure Humidity
00:00 +5°C° 0 mm 1 mps 750 mmHg 95%
01:00 +3°C° 0 mm 2 mps 750 mmHg 95%
02:00 +3°C° 0 mm 2 mps 750 mmHg 95%
03:00 +3°C° 0 mm 2 mps 750 mmHg 95%
04:00 +3°C° 0 mm 2 mps 750 mmHg 95%
05:00 +3°C° 0 mm 2 mps 750 mmHg 95%
06:00 +3°C° 0 mm 2 mps 750 mmHg 94%
07:00 +3°C° 0 mm 2 mps 750 mmHg 93%
08:00 +4°C° 0 mm 2 mps 749 mmHg 92%
09:00 +5°C° 0 mm 2 mps 749 mmHg 87%
10:00 +7°C° 0 mm 3 mps 749 mmHg 83%
11:00 +8°C° 0 mm 3 mps 749 mmHg 78%
12:00 +8°C° 0 mm 3 mps 749 mmHg 77%
13:00 +9°C° 0 mm 3 mps 749 mmHg 77%
14:00 +9°C° 0 mm 3 mps 749 mmHg 76%
15:00 +8°C° 0 mm 3 mps 749 mmHg 80%
16:00 +8°C° 0 mm 3 mps 749 mmHg 83%
17:00 +7°C° 0 mm 3 mps 749 mmHg 87%
18:00 +7°C° 0 mm 3 mps 748 mmHg 87%
19:00 +7°C° 0 mm 3 mps 748 mmHg 87%
20:00 +7°C° 0 mm 3 mps 748 mmHg 88%
21:00 +7°C° 0 mm 3 mps 748 mmHg 87%
22:00 +7°C° 0 mm 3 mps 748 mmHg 86%
23:00 +7°C° 0 mm 3 mps 749 mmHg 85%
Show more